[ hide orbit diagram ]
For accurate long-term ephemerides, please instead use our Horizons system.This orbit viewer was implemented using two-body methods, and hence should not be used for determining accurate long-term trajectories (over several years or decades) or planetary encounter circumstances.
Orbital Elements at Epoch 2459000.5 (2020-May-31.0) TDB
Reference: JPL 18 (heliocentric ecliptic J2000)
Element | Value | Uncertainty (1-sigma) | Units |
e | .09630835678164915 | 3.8043e-08 | |
a | 2.725931344025986 | 1.5712e-08 | au |
q | 2.463401375583251 | 1.0168e-07 | au |
i | 5.901506434854021 | 5.9051e-06 | deg |
node | 70.57973420433228 | 4.6352e-05 | deg |
peri | 226.9811314100333 | 5.7351e-05 | deg |
M | 65.31283106238614 | 3.4308e-05 | deg |
tp | 2458702.259371858944 (2019-Aug-06.75937186) | 0.00015583 | TDB |
period | 1643.882593731462 4.50 | 1.4212e-05 3.891e-08 | d yr |
n | .2189937416289768 | 1.8933e-09 | deg/d |
Q | 2.988461312468721 | 1.7225e-08 | au |
|
| | Orbit Determination Parameters
Additional Information
|
[ show covariance matrix ]
Physical Parameter Table
Parameter |
Symbol |
Value |
Units |
Sigma |
Reference |
Notes |
absolute magnitude |
H |
15.1 |
|
n/a |
MPO439475 |
|
diameter |
diameter |
4.960 |
km |
0.132 |
urn:nasa:pds:neowise_diameters_albedos::2.0[mainbelt] (http://adsabs.harvard.edu/abs/2011ApJ...741...68M) |
|
geometric albedo |
albedo |
0.045 |
|
0.007 |
urn:nasa:pds:neowise_diameters_albedos::2.0[mainbelt] (http://adsabs.harvard.edu/abs/2011ApJ...741...68M) |
|
|
58028 (2002 VB63) Discovered 2002-Nov-06 by LINEAR at Socorro |
Reference: 20030318/Numbers.arc | Last Updated: 2004-04-19 |
|
Alternate Designations
2002 VB63 = 1996 KE5 = 2000 FB73 = 2002 TE51 |
|
|